User: anonymous
Location: Myra
(43.4160°N, 88.0960°W)
Time: 03:05:21
(UTC-05:00)
Language:

SL-8 R/B - Orbit

View from above orbital plane
View from above orbital plane
View from above satellite
View from above satellite

Ground track
Ground track

The orbit data is extracted from the following two-line orbital elements,

1 33066U 08031G   14263.81857626  .00000177  00000-0  62916-4 0  8957
2 33066 048.4426 108.0072 0008204 211.4053 243.6323 14.68874636335654
Epoch (UTC): 20 September 2014 19:38:44
Eccentricity: 0.0008204
inclination: 48.4426°
perigee height: 659 km
apogee height: 670 km
right ascension of ascending node: 108.0072°
argument of perigee: 211.4053°
revolutions per day: 14.68874636
mean anomaly at epoch: 243.6323°
orbit number at epoch: 33565

The dashed part of the orbit path shows where the satellite is in the earth's shadow,  

DLR